Dewpoint
31 28 24 23 21 20 19 18 15 15 15 14 14 13 12 13 11 10 10 13 19 19 24 27 31 39 50 52 47 46 44 43 42 42 41 41 39 40 40 40 39 39 38 38
26 24 23 23 24 24 21 18 17 18 18 16 16 13 13 13 13 13 11 11 11 15 14 20 26 30 48 52 49 45 43 42 41 42 41 40 39 39 39 40 39 39 39 38
21 21 21 21 21 19 18 18 17 18 21 21 18 16 16 16 16 15 14 13 15 15 17 15 19 28 33 47 50 45 42 41 41 42 40 39 39 39 38 38 38 38 39 38
22 24 21 22 21 20 19 20 20 18 17 19 15 16 16 14 13 13 16 18 20 20 20 19 19 23 29 40 48 45 42 41 41 40 38 37 35 35 36 37 38 38 38 37
18 20 20 21 20 21 20 22 19 18 18 17 15 16 14 15 12 15 20 22 24 25 25 24 21 21 24 34 43 46 42 41 40 39 38 37 36 36 36 37 37 37 37 36
18 19 19 19 18 20 22 21 21 20 19 13 17 16 14 14 14 19 21 23 25 26 26 26 25 24 26 29 38 44 42 41 40 39 38 36 35 36 36 37 37 37 37 36
16 17 18 20 18 21 22 20 14 13 16 13 12 12 15 15 17 21 22 24 26 27 28 27 28 26 26 28 35 42 42 41 40 39 37 36 37 36 36 37 36 36 36 35
14 13 17 20 19 19 21 23 15 6 11 18 17 17 15 17 19 23 23 23 24 24 28 29 30 29 28 28 32 39 42 41 40 39 37 37 38 37 37 37 36 36 36 35
19 14 19 18 19 20 21 18 22 14 14 13 18 16 18 20 22 24 22 21 21 25 26 28 30 31 31 30 31 36 39 41 40 39 38 38 37 37 37 37 36 36 36 34
23 18 18 18 20 21 21 22 16 17 5 4 14 16 15 20 21 22 20 17 21 26 25 27 30 31 32 33 32 34 39 40 39 39 38 38 37 37 36 36 35 35 34 34
17 20 16 18 17 17 20 20 21 21 20 15 9 13 22 22 22 21 18 17 24 26 24 29 32 33 33 33 33 33 37 38 39 39 38 37 36 36 36 35 35 34 33 34
14 16 13 13 12 13 17 19 20 16 11 16 17 14 21 18 15 13 11 15 26 25 26 28 31 32 34 35 35 35 36 38 38 38 37 36 36 35 35 35 34 34 33 34
12 10 2 7 7 16 12 11 23 16 18 12 7 13 18 14 11 9 10 24 26 24 27 29 32 32 32 33 35 36 36 37 38 37 36 35 34 34 34 34 34 33 33 33
13 12 3 -1 3 7 1 -3 -2 3 -0 3 7 11 10 10 9 9 18 23 23 22 27 30 29 29 31 32 33 34 36 36 37 36 35 34 34 34 34 34 33 34 33 32
15 4 10 10 10 4 1 1 2 5 4 0 1 2 5 9 12 16 21 22 20 23 28 27 27 28 30 31 32 33 35 35 36 34 33 33 33 33 34 34 34 33 33 33
18 4 7 3 7 6 6 4 3 2 5 4 2 2 2 4 10 18 22 22 22 22 24 25 25 27 29 30 32 32 34 34 34 33 33 33 33 33 33 33 32 32 32 32
10 7 1 0 4 5 -4 3 2 5 5 2 -0 4 10 11 18 17 20 20 20 22 21 23 25 26 28 30 32 32 32 33 34 33 33 33 33 32 31 31 30 29 30 31
11 10 9 2 -1 -5 -2 -3 -6 -5 -1 2 5 6 3 9 21 23 22 19 21 19 19 24 25 26 28 30 32 32 32 31 33 34 33 33 32 31 31 30 29 29 29 30
17 13 9 5 0 -1 -1 -4 -5 -3 -3 -3 -2 -3 2 5 4 12 18 26 20 17 21 24 26 27 29 31 33 32 30 30 32 33 33 32 32 31 30 29 29 30 30 30
17 18 12 8 1 -7 -3 -2 1 -2 -5 -2 -1 0 0 4 4 10 16 17 18 19 21 23 25 27 28 30 31 29 28 29 31 32 33 33 32 31 30 30 30 30 30 30
-2 9 7 6 4 5 4 3 3 -3 -4 0 -1 2 5 5 12 14 17 19 18 20 21 20 24 26 27 30 28 26 27 28 31 33 32 33 32 32 31 30 30 29 29 29
7 -0 2 6 4 -0 6 6 4 5 8 10 10 12 10 8 9 14 16 17 18 16 16 20 24 26 27 27 26 25 26 29 32 32 32 32 32 31 31 29 29 28 29 28
10 10 8 6 4 10 10 10 14 15 15 15 13 15 13 11 9 11 12 13 17 19 22 23 24 26 26 26 25 24 25 26 29 31 32 32 31 31 30 29 28 28 28 28
16 20 13 16 14 11 12 15 17 20 20 19 18 19 18 16 15 15 15 17 19 21 22 23 23 24 24 24 24 23 23 24 27 32 32 32 30 30 29 30 29 28 28 28
13 14 11 11 9 11 13 14 15 18 17 19 20 20 19 18 19 19 19 19 20 22 24 22 23 23 23 23 23 19 20 22 24 30 30 30 31 30 30 30 29 28 28 29
11 10 8 6 8 11 9 12 16 16 15 17 18 17 19 20 20 19 19 21 22 22 21 21 21 20 19 19 21 18 15 19 22 28 28 29 30 30 29 29 29 31 30 31
Lifted_Index
4 4 4 4 4 4 4 3 3 3 4 4 5 5 5 5 6 6 5 5 5 5 5 5 5 3 1 -1 -1 -0 -0 -0 -0 0 1 3 5 7 9 11 12 13 14 14
4 4 4 5 4 4 4 3 3 3 4 4 4 5 5 5 5 5 5 5 6 6 6 6 6 4 2 0 -0 0 0 -0 -0 0 2 4 6 8 9 10 12 13 14 14
4 4 4 4 4 4 4 4 3 3 3 3 4 4 4 4 4 4 4 5 6 7 7 7 7 6 4 2 1 1 1 0 -0 0 2 4 6 6 7 9 11 13 14 14
4 4 4 4 4 4 4 4 4 3 3 3 3 3 3 3 3 4 4 5 6 7 7 8 8 8 6 4 2 2 2 2 1 1 1 2 3 4 6 8 10 12 13 14
4 4 4 4 4 4 4 4 4 4 3 2 2 2 2 3 3 3 4 5 6 6 7 7 8 8 8 6 4 3 3 3 3 2 1 1 2 4 5 7 10 12 13 13
4 5 5 5 5 5 4 4 3 3 2 2 2 2 2 2 2 3 4 5 6 6 7 7 8 8 9 8 6 4 4 4 4 3 2 2 3 4 6 7 9 11 13 13
4 4 5 5 5 5 4 3 2 1 1 1 2 2 2 2 2 3 4 5 6 6 7 8 8 8 9 9 7 6 5 5 5 5 4 3 4 5 6 7 9 11 12 13
4 4 5 5 5 4 4 3 2 1 1 1 2 2 2 2 2 3 4 5 6 7 7 8 9 9 9 9 8 7 6 6 6 6 6 5 5 6 6 8 9 11 12 13
4 5 5 5 5 4 3 3 2 2 1 1 2 2 2 2 2 3 4 5 6 7 7 8 9 9 9 9 9 9 8 7 7 7 7 7 6 6 7 8 10 11 12 13
6 5 5 5 4 4 3 3 2 2 1 1 1 1 1 1 2 3 4 4 5 6 7 8 9 9 9 9 9 9 9 8 8 8 8 8 7 7 8 8 10 11 12 12
7 6 5 4 4 3 2 2 2 2 1 1 1 1 0 1 2 3 4 5 6 6 7 8 9 9 9 9 9 9 9 9 9 9 9 9 9 8 8 9 10 11 12 12
7 6 4 4 4 3 3 2 2 2 2 2 1 1 1 1 2 3 4 5 6 7 8 9 9 9 9 8 8 9 9 9 9 10 10 10 10 9 9 9 10 11 12 12
7 6 4 3 4 4 3 3 3 3 2 2 2 2 2 1 2 2 4 5 6 7 8 9 9 9 9 8 8 8 9 9 10 10 11 11 11 10 9 9 10 11 12 12
8 6 4 3 4 4 4 4 4 3 3 3 3 3 3 3 3 3 4 5 7 8 9 9 9 9 9 8 8 9 9 9 9 10 11 11 11 10 9 9 10 11 11 12
7 6 5 5 5 6 5 5 5 4 4 4 4 5 6 6 6 6 6 6 7 9 9 10 10 10 9 9 8 9 9 9 9 10 10 11 11 10 10 10 10 11 11 12
7 6 6 5 6 6 6 6 6 6 6 5 5 6 8 9 9 9 9 8 9 9 10 11 11 10 10 9 9 9 9 9 9 9 10 11 11 11 10 10 10 11 11 12
7 7 6 5 5 6 6 6 7 7 7 7 7 8 9 10 10 10 10 10 10 10 11 11 11 11 10 10 9 9 9 9 9 9 9 10 11 11 10 10 10 11 11 11
7 6 5 5 5 5 5 6 6 6 6 6 7 8 9 9 9 10 10 11 11 11 11 12 12 11 10 10 10 10 9 9 8 8 9 9 10 10 10 10 10 10 11 11
6 5 5 4 3 4 5 5 4 4 4 4 5 6 7 7 8 9 10 11 11 11 12 13 13 12 11 10 10 9 9 8 8 8 8 9 10 10 9 9 10 10 11 11
4 4 3 3 2 2 3 3 2 2 2 2 2 3 4 5 6 8 10 11 11 12 12 13 13 12 11 10 9 9 8 7 7 8 8 9 10 10 9 9 10 10 10 11
2 2 2 2 1 1 2 2 2 1 1 1 1 1 1 2 3 6 8 10 11 12 13 13 13 12 11 10 9 8 7 7 7 8 8 9 9 9 9 9 9 10 10 10
1 1 1 1 1 1 1 1 1 1 1 1 0 0 0 1 2 3 6 8 10 12 13 13 13 12 12 11 10 8 7 7 8 8 8 8 9 9 9 9 9 10 10 10
0 0 0 0 1 1 1 1 1 1 1 0 0 0 0 1 1 2 3 5 8 10 12 13 13 12 11 11 10 8 8 8 8 8 8 8 9 9 9 9 9 9 9 9
0 0 0 0 0 1 1 1 1 0 0 0 0 0 0 1 1 2 3 4 6 9 11 13 13 12 11 11 10 9 9 9 9 8 8 8 8 9 9 9 9 9 9 9
0 0 0 0 1 1 1 1 0 0 0 0 0 0 1 1 2 2 3 3 4 7 10 12 13 12 12 11 10 9 10 10 9 8 8 8 8 8 9 9 9 9 9 9
1 1 1 1 1 1 1 1 0 0 0 0 0 0 1 2 2 2 3 3 4 6 9 12 13 12 12 11 10 10 10 10 9 9 8 8 7 8 8 8 9 9 9 10